owner,sensor,date,latitude,longitude,vertical_datum,mass_concentration_of_oxygen_in_sea_water,qcFlag 
DISL,ioos:station:DISL:CATA:1,2019-09-01T00:30:00Z,30.3085,-88.1395,0.0,7.04,11111222 
DISL,ioos:station:DISL:CATA:1,2019-09-01T01:30:00Z,30.3085,-88.1395,0.0,6.97,11111222 
DISL,ioos:station:DISL:CATA:1,2019-09-01T02:30:00Z,30.3085,-88.1395,0.0,6.8,11111222 
DISL,ioos:station:DISL:CATA:1,2019-09-01T03:30:00Z,30.3085,-88.1395,0.0,6.71,11111222 
DISL,ioos:station:DISL:CATA:1,2019-09-01T04:30:00Z,30.3085,-88.1395,0.0,7.28,11111222 
DISL,ioos:station:DISL:CATA:1,2019-09-01T05:30:00Z,30.3085,-88.1395,0.0,7.02,11111222 
DISL,ioos:station:DISL:CATA:1,2019-09-01T06:30:00Z,30.3085,-88.1395,0.0,6.23,11111222 
DISL,ioos:station:DISL:CATA:1,2019-09-01T07:30:00Z,30.3085,-88.1395,0.0,4.97,11111222 
DISL,ioos:station:DISL:CATA:1,2019-09-01T08:30:00Z,30.3085,-88.1395,0.0,4.69,11111222 
DISL,ioos:station:DISL:CATA:1,2019-09-01T09:30:00Z,30.3085,-88.1395,0.0,4.12,11111222 
DISL,ioos:station:DISL:CATA:1,2019-09-01T10:30:00Z,30.3085,-88.1395,0.0,5.58,11111222 
DISL,ioos:station:DISL:CATA:1,2019-09-01T11:30:00Z,30.3085,-88.1395,0.0,6.54,11111222 
DISL,ioos:station:DISL:CATA:1,2019-09-01T12:30:00Z,30.3085,-88.1395,0.0,6.35,11111222 
DISL,ioos:station:DISL:CATA:1,2019-09-01T13:30:00Z,30.3085,-88.1395,0.0,6.19,11111222 
DISL,ioos:station:DISL:CATA:1,2019-09-01T14:30:00Z,30.3085,-88.1395,0.0,6.05,11111222 
DISL,ioos:station:DISL:CATA:1,2019-09-01T15:30:00Z,30.3085,-88.1395,0.0,5.7,11111222 
DISL,ioos:station:DISL:CATA:1,2019-09-01T16:30:00Z,30.3085,-88.1395,0.0,4.45,11111222 
DISL,ioos:station:DISL:CATA:1,2019-09-01T17:30:00Z,30.3085,-88.1395,0.0,5.95,11111222 
DISL,ioos:station:DISL:CATA:1,2019-09-01T18:30:00Z,30.3085,-88.1395,0.0,5.94,11111222 
DISL,ioos:station:DISL:CATA:1,2019-09-01T19:30:00Z,30.3085,-88.1395,0.0,4.27,11111222 
DISL,ioos:station:DISL:CATA:1,2019-09-01T20:30:00Z,30.3085,-88.1395,0.0,3.72,11111222 
DISL,ioos:station:DISL:CATA:1,2019-09-01T21:30:00Z,30.3085,-88.1395,0.0,3.36,11111222 
DISL,ioos:station:DISL:CATA:1,2019-09-01T22:30:00Z,30.3085,-88.1395,0.0,3.16,11111222 
DISL,ioos:station:DISL:CATA:1,2019-09-01T23:30:00Z,30.3085,-88.1395,0.0,4.71,11111222 
DISL,ioos:station:DISL:CATA:1,2019-09-02T00:30:00Z,30.3085,-88.1395,0.0,6.11,11111222 
DISL,ioos:station:DISL:CATA:1,2019-09-02T01:30:00Z,30.3085,-88.1395,0.0,5.87,11111222 
DISL,ioos:station:DISL:CATA:1,2019-09-02T02:30:00Z,30.3085,-88.1395,0.0,6.03,11111222 
DISL,ioos:station:DISL:CATA:1,2019-09-02T03:30:00Z,30.3085,-88.1395,0.0,6.34,11111222 
DISL,ioos:station:DISL:CATA:1,2019-09-02T04:30:00Z,30.3085,-88.1395,0.0,6.32,11111222 
DISL,ioos:station:DISL:CATA:1,2019-09-02T05:30:00Z,30.3085,-88.1395,0.0,6.23,11111222 
DISL,ioos:station:DISL:CATA:1,2019-09-02T06:30:00Z,30.3085,-88.1395,0.0,6.09,11111222 
DISL,ioos:station:DISL:CATA:1,2019-09-02T07:30:00Z,30.3085,-88.1395,0.0,6.05,11111222 
DISL,ioos:station:DISL:CATA:1,2019-09-02T08:30:00Z,30.3085,-88.1395,0.0,5.92,11111222 
DISL,ioos:station:DISL:CATA:1,2019-09-02T09:30:00Z,30.3085,-88.1395,0.0,5.62,11111222 
DISL,ioos:station:DISL:CATA:1,2019-09-02T10:30:00Z,30.3085,-88.1395,0.0,5.79,11111222 
DISL,ioos:station:DISL:CATA:1,2019-09-02T11:30:00Z,30.3085,-88.1395,0.0,6.07,11111222 
DISL,ioos:station:DISL:CATA:1,2019-09-02T12:30:00Z,30.3085,-88.1395,0.0,6.19,11111222 
DISL,ioos:station:DISL:CATA:1,2019-09-02T15:30:00Z,30.3085,-88.1395,0.0,6.15,11111222 
DISL,ioos:station:DISL:CATA:1,2019-09-02T16:30:00Z,30.3085,-88.1395,0.0,5.55,11111222 
DISL,ioos:station:DISL:CATA:1,2019-09-02T17:30:00Z,30.3085,-88.1395,0.0,5.05,11111222 
DISL,ioos:station:DISL:CATA:1,2019-09-02T18:30:00Z,30.3085,-88.1395,0.0,6.12,11111222 
DISL,ioos:station:DISL:CATA:1,2019-09-02T19:30:00Z,30.3085,-88.1395,0.0,5.78,11111222 
DISL,ioos:station:DISL:CATA:1,2019-09-02T20:30:00Z,30.3085,-88.1395,0.0,4.13,11111222 
DISL,ioos:station:DISL:CATA:1,2019-09-02T21:30:00Z,30.3085,-88.1395,0.0,3.44,11111222 
DISL,ioos:station:DISL:CATA:1,2019-09-02T22:30:00Z,30.3085,-88.1395,0.0,3.2,11111222 
DISL,ioos:station:DISL:CATA:1,2019-09-02T23:30:00Z,30.3085,-88.1395,0.0,3.85,11111222 
DISL,ioos:station:DISL:CATA:1,2019-09-03T00:30:00Z,30.3085,-88.1395,0.0,7.5,11111222 
DISL,ioos:station:DISL:CATA:1,2019-09-03T01:30:00Z,30.3085,-88.1395,0.0,7.59,11111222 
DISL,ioos:station:DISL:CATA:1,2019-09-03T02:30:00Z,30.3085,-88.1395,0.0,6.99,11111222 
DISL,ioos:station:DISL:CATA:1,2019-09-03T03:30:00Z,30.3085,-88.1395,0.0,6.9,11111222 
DISL,ioos:station:DISL:CATA:1,2019-09-03T04:30:00Z,30.3085,-88.1395,0.0,6.8,11111222 
DISL,ioos:station:DISL:CATA:1,2019-09-03T05:30:00Z,30.3085,-88.1395,0.0,5.12,11111222 
DISL,ioos:station:DISL:CATA:1,2019-09-03T06:30:00Z,30.3085,-88.1395,0.0,4.55,11111222 
DISL,ioos:station:DISL:CATA:1,2019-09-03T07:30:00Z,30.3085,-88.1395,0.0,4.21,11111222 
DISL,ioos:station:DISL:CATA:1,2019-09-03T08:30:00Z,30.3085,-88.1395,0.0,4.07,11111222 
DISL,ioos:station:DISL:CATA:1,2019-09-03T09:30:00Z,30.3085,-88.1395,0.0,4.72,11111222 
DISL,ioos:station:DISL:CATA:1,2019-09-03T10:30:00Z,30.3085,-88.1395,0.0,5.87,11111222 
DISL,ioos:station:DISL:CATA:1,2019-09-03T11:30:00Z,30.3085,-88.1395,0.0,6.44,11111222 
DISL,ioos:station:DISL:CATA:1,2019-09-03T12:30:00Z,30.3085,-88.1395,0.0,6.36,11111222 
DISL,ioos:station:DISL:CATA:1,2019-09-03T13:30:00Z,30.3085,-88.1395,0.0,6.34,11111222 
DISL,ioos:station:DISL:CATA:1,2019-09-03T14:30:00Z,30.3085,-88.1395,0.0,6.5,11111222 
DISL,ioos:station:DISL:CATA:1,2019-09-03T15:30:00Z,30.3085,-88.1395,0.0,6.61,11111222 
DISL,ioos:station:DISL:CATA:1,2019-09-03T16:30:00Z,30.3085,-88.1395,0.0,6.81,11111222 
DISL,ioos:station:DISL:CATA:1,2019-09-03T17:30:00Z,30.3085,-88.1395,0.0,6.43,11111222 
DISL,ioos:station:DISL:CATA:1,2019-09-03T18:30:00Z,30.3085,-88.1395,0.0,5.88,11111222 
DISL,ioos:station:DISL:CATA:1,2019-09-03T19:30:00Z,30.3085,-88.1395,0.0,6.11,11111222 
DISL,ioos:station:DISL:CATA:1,2019-09-03T20:30:00Z,30.3085,-88.1395,0.0,5.19,11111222 
DISL,ioos:station:DISL:CATA:1,2019-09-03T21:30:00Z,30.3085,-88.1395,0.0,5.28,11111222 
DISL,ioos:station:DISL:CATA:1,2019-09-03T22:30:00Z,30.3085,-88.1395,0.0,4.73,11111222 
DISL,ioos:station:DISL:CATA:1,2019-09-03T23:30:00Z,30.3085,-88.1395,0.0,4.42,11111222 
DISL,ioos:station:DISL:CATA:1,2019-09-04T00:30:00Z,30.3085,-88.1395,0.0,3.35,11111222 
DISL,ioos:station:DISL:CATA:1,2019-09-04T01:30:00Z,30.3085,-88.1395,0.0,2.71,11111222 
DISL,ioos:station:DISL:CATA:1,2019-09-04T02:30:00Z,30.3085,-88.1395,0.0,3.49,11111222 
DISL,ioos:station:DISL:CATA:1,2019-09-04T03:30:00Z,30.3085,-88.1395,0.0,1.44,11111222 
DISL,ioos:station:DISL:CATA:1,2019-09-04T04:30:00Z,30.3085,-88.1395,0.0,2.55,11111222 
DISL,ioos:station:DISL:CATA:1,2019-09-04T05:30:00Z,30.3085,-88.1395,0.0,1.82,11111222 
DISL,ioos:station:DISL:CATA:1,2019-09-04T06:30:00Z,30.3085,-88.1395,0.0,1.62,11111222 
DISL,ioos:station:DISL:CATA:1,2019-09-04T07:30:00Z,30.3085,-88.1395,0.0,1.49,11111222 
DISL,ioos:station:DISL:CATA:1,2019-09-04T08:30:00Z,30.3085,-88.1395,0.0,3.2,11111222 
DISL,ioos:station:DISL:CATA:1,2019-09-04T09:30:00Z,30.3085,-88.1395,0.0,3.26,11111222 
DISL,ioos:station:DISL:CATA:1,2019-09-04T10:30:00Z,30.3085,-88.1395,0.0,4.26,11111222 
DISL,ioos:station:DISL:CATA:1,2019-09-04T11:30:00Z,30.3085,-88.1395,0.0,6.8,11111222 
DISL,ioos:station:DISL:CATA:1,2019-09-04T12:30:00Z,30.3085,-88.1395,0.0,7.12,11111222 
DISL,ioos:station:DISL:CATA:1,2019-09-04T13:30:00Z,30.3085,-88.1395,0.0,7.18,11111222 
DISL,ioos:station:DISL:CATA:1,2019-09-04T14:30:00Z,30.3085,-88.1395,0.0,7.21,11111222 
DISL,ioos:station:DISL:CATA:1,2019-09-04T15:30:00Z,30.3085,-88.1395,0.0,7.26,11111222 
DISL,ioos:station:DISL:CATA:1,2019-09-04T16:30:00Z,30.3085,-88.1395,0.0,7.26,11111222 
DISL,ioos:station:DISL:CATA:1,2019-09-04T17:30:00Z,30.3085,-88.1395,0.0,7.21,11111222 
DISL,ioos:station:DISL:CATA:1,2019-09-04T18:30:00Z,30.3085,-88.1395,0.0,5.35,11111222 
DISL,ioos:station:DISL:CATA:1,2019-09-04T19:30:00Z,30.3085,-88.1395,0.0,6.92,11111222 
DISL,ioos:station:DISL:CATA:1,2019-09-04T20:30:00Z,30.3085,-88.1395,0.0,7.15,11111222 
DISL,ioos:station:DISL:CATA:1,2019-09-04T21:30:00Z,30.3085,-88.1395,0.0,7.73,11111222 
DISL,ioos:station:DISL:CATA:1,2019-09-04T22:30:00Z,30.3085,-88.1395,0.0,7.75,11111222 
DISL,ioos:station:DISL:CATA:1,2019-09-04T23:30:00Z,30.3085,-88.1395,0.0,7.52,11111222 
DISL,ioos:station:DISL:CATA:1,2019-09-05T00:30:00Z,30.3085,-88.1395,0.0,7.11,11111222 
DISL,ioos:station:DISL:CATA:1,2019-09-05T01:30:00Z,30.3085,-88.1395,0.0,7.63,11111222 
DISL,ioos:station:DISL:CATA:1,2019-09-05T02:30:00Z,30.3085,-88.1395,0.0,7.37,11111222 
DISL,ioos:station:DISL:CATA:1,2019-09-05T03:30:00Z,30.3085,-88.1395,0.0,5.92,11111222 
DISL,ioos:station:DISL:CATA:1,2019-09-05T04:30:00Z,30.3085,-88.1395,0.0,4.88,11111222 
DISL,ioos:station:DISL:CATA:1,2019-09-05T05:30:00Z,30.3085,-88.1395,0.0,4.46,11111222 
DISL,ioos:station:DISL:CATA:1,2019-09-05T06:30:00Z,30.3085,-88.1395,0.0,4.64,11111222 
DISL,ioos:station:DISL:CATA:1,2019-09-05T07:30:00Z,30.3085,-88.1395,0.0,5.15,11111222 
DISL,ioos:station:DISL:CATA:1,2019-09-05T08:30:00Z,30.3085,-88.1395,0.0,5.02,11111222 
DISL,ioos:station:DISL:CATA:1,2019-09-05T09:30:00Z,30.3085,-88.1395,0.0,3.88,11111222 
DISL,ioos:station:DISL:CATA:1,2019-09-05T10:30:00Z,30.3085,-88.1395,0.0,2.42,11111222 
DISL,ioos:station:DISL:CATA:1,2019-09-05T11:30:00Z,30.3085,-88.1395,0.0,2.56,11111222 
DISL,ioos:station:DISL:CATA:1,2019-09-05T12:30:00Z,30.3085,-88.1395,0.0,2.5,11111222 
DISL,ioos:station:DISL:CATA:1,2019-09-05T13:30:00Z,30.3085,-88.1395,0.0,3.91,11111222 
DISL,ioos:station:DISL:CATA:1,2019-09-05T14:30:00Z,30.3085,-88.1395,0.0,5.49,11111222 
DISL,ioos:station:DISL:CATA:1,2019-09-05T15:30:00Z,30.3085,-88.1395,0.0,6.36,11111222 
DISL,ioos:station:DISL:CATA:1,2019-09-05T16:30:00Z,30.3085,-88.1395,0.0,6.75,11111222 
DISL,ioos:station:DISL:CATA:1,2019-09-05T17:30:00Z,30.3085,-88.1395,0.0,7.23,11111222 
DISL,ioos:station:DISL:CATA:1,2019-09-05T18:30:00Z,30.3085,-88.1395,0.0,6.98,11111222 
DISL,ioos:station:DISL:CATA:1,2019-09-05T19:30:00Z,30.3085,-88.1395,0.0,7.49,11111222 
DISL,ioos:station:DISL:CATA:1,2019-09-05T20:30:00Z,30.3085,-88.1395,0.0,7.77,11111222 
DISL,ioos:station:DISL:CATA:1,2019-09-05T21:30:00Z,30.3085,-88.1395,0.0,7.27,11111222 
DISL,ioos:station:DISL:CATA:1,2019-09-05T22:30:00Z,30.3085,-88.1395,0.0,7.18,11111222 
DISL,ioos:station:DISL:CATA:1,2019-09-05T23:30:00Z,30.3085,-88.1395,0.0,7.03,11111222 
DISL,ioos:station:DISL:CATA:1,2019-09-06T00:30:00Z,30.3085,-88.1395,0.0,6.3,11111222 
DISL,ioos:station:DISL:CATA:1,2019-09-06T01:30:00Z,30.3085,-88.1395,0.0,6.13,11111222 
DISL,ioos:station:DISL:CATA:1,2019-09-06T02:30:00Z,30.3085,-88.1395,0.0,6.54,11111222 
DISL,ioos:station:DISL:CATA:1,2019-09-06T03:30:00Z,30.3085,-88.1395,0.0,6.38,11111222 
DISL,ioos:station:DISL:CATA:1,2019-09-06T04:30:00Z,30.3085,-88.1395,0.0,6.1,11111222 
DISL,ioos:station:DISL:CATA:1,2019-09-06T08:00:00Z,30.3085,-88.1395,0.0,5.57,11111222 
DISL,ioos:station:DISL:CATA:1,2019-09-06T08:30:00Z,30.3085,-88.1395,0.0,5.55,11111222 
DISL,ioos:station:DISL:CATA:1,2019-09-06T09:30:00Z,30.3085,-88.1395,0.0,5.34,11111222 
DISL,ioos:station:DISL:CATA:1,2019-09-06T10:30:00Z,30.3085,-88.1395,0.0,4.14,11111222 
DISL,ioos:station:DISL:CATA:1,2019-09-06T11:30:00Z,30.3085,-88.1395,0.0,4.22,11111222 
DISL,ioos:station:DISL:CATA:1,2019-09-06T12:30:00Z,30.3085,-88.1395,0.0,4.64,11111222 
DISL,ioos:station:DISL:CATA:1,2019-09-06T13:30:00Z,30.3085,-88.1395,0.0,3.87,11111222 
DISL,ioos:station:DISL:CATA:1,2019-09-06T14:30:00Z,30.3085,-88.1395,0.0,4.73,11111222 
DISL,ioos:station:DISL:CATA:1,2019-09-06T15:30:00Z,30.3085,-88.1395,0.0,5.58,11111222 
DISL,ioos:station:DISL:CATA:1,2019-09-06T16:30:00Z,30.3085,-88.1395,0.0,6.18,11111222 
DISL,ioos:station:DISL:CATA:1,2019-09-06T17:30:00Z,30.3085,-88.1395,0.0,7.27,11111222 
DISL,ioos:station:DISL:CATA:1,2019-09-06T18:30:00Z,30.3085,-88.1395,0.0,7.92,11111222 
DISL,ioos:station:DISL:CATA:1,2019-09-06T19:30:00Z,30.3085,-88.1395,0.0,8.32,11111222 
DISL,ioos:station:DISL:CATA:1,2019-09-06T20:30:00Z,30.3085,-88.1395,0.0,8.16,11111222 
DISL,ioos:station:DISL:CATA:1,2019-09-06T21:30:00Z,30.3085,-88.1395,0.0,8.14,11111222 
DISL,ioos:station:DISL:CATA:1,2019-09-06T22:30:00Z,30.3085,-88.1395,0.0,8.3,11111222 
DISL,ioos:station:DISL:CATA:1,2019-09-06T23:30:00Z,30.3085,-88.1395,0.0,6.02,11111222 
DISL,ioos:station:DISL:CATA:1,2019-09-07T00:30:00Z,30.3085,-88.1395,0.0,7.59,11111222 
DISL,ioos:station:DISL:CATA:1,2019-09-07T01:30:00Z,30.3085,-88.1395,0.0,7.45,11111222 
DISL,ioos:station:DISL:CATA:1,2019-09-07T02:30:00Z,30.3085,-88.1395,0.0,6.74,11111222 
DISL,ioos:station:DISL:CATA:1,2019-09-07T03:30:00Z,30.3085,-88.1395,0.0,6.4,11111222 
DISL,ioos:station:DISL:CATA:1,2019-09-07T04:30:00Z,30.3085,-88.1395,0.0,6.03,11111222 
DISL,ioos:station:DISL:CATA:1,2019-09-07T05:30:00Z,30.3085,-88.1395,0.0,7.54,11111222 
DISL,ioos:station:DISL:CATA:1,2019-09-07T06:30:00Z,30.3085,-88.1395,0.0,6.68,11111222 
DISL,ioos:station:DISL:CATA:1,2019-09-07T07:30:00Z,30.3085,-88.1395,0.0,6.81,11111222 
DISL,ioos:station:DISL:CATA:1,2019-09-07T08:30:00Z,30.3085,-88.1395,0.0,6.69,11111222 
DISL,ioos:station:DISL:CATA:1,2019-09-07T09:30:00Z,30.3085,-88.1395,0.0,6.08,11111222 
DISL,ioos:station:DISL:CATA:1,2019-09-07T10:30:00Z,30.3085,-88.1395,0.0,5.64,11111222 
DISL,ioos:station:DISL:CATA:1,2019-09-07T11:30:00Z,30.3085,-88.1395,0.0,3.72,11111222 
DISL,ioos:station:DISL:CATA:1,2019-09-07T12:30:00Z,30.3085,-88.1395,0.0,3.69,11111222 
DISL,ioos:station:DISL:CATA:1,2019-09-07T13:30:00Z,30.3085,-88.1395,0.0,3.37,11111222 
DISL,ioos:station:DISL:CATA:1,2019-09-07T14:30:00Z,30.3085,-88.1395,0.0,4.77,11111222 
DISL,ioos:station:DISL:CATA:1,2019-09-07T15:30:00Z,30.3085,-88.1395,0.0,4.01,11111222 
DISL,ioos:station:DISL:CATA:1,2019-09-07T16:30:00Z,30.3085,-88.1395,0.0,4.21,11111222 
DISL,ioos:station:DISL:CATA:1,2019-09-07T17:30:00Z,30.3085,-88.1395,0.0,6.63,11111222 
DISL,ioos:station:DISL:CATA:1,2019-09-07T18:30:00Z,30.3085,-88.1395,0.0,7.3,11111222 
DISL,ioos:station:DISL:CATA:1,2019-09-07T19:30:00Z,30.3085,-88.1395,0.0,7.51,11111222 
DISL,ioos:station:DISL:CATA:1,2019-09-07T20:30:00Z,30.3085,-88.1395,0.0,7.47,11111222 
DISL,ioos:station:DISL:CATA:1,2019-09-07T21:30:00Z,30.3085,-88.1395,0.0,6.9,11111222 
DISL,ioos:station:DISL:CATA:1,2019-09-07T22:30:00Z,30.3085,-88.1395,0.0,5.82,11111222 
DISL,ioos:station:DISL:CATA:1,2019-09-07T23:30:00Z,30.3085,-88.1395,0.0,7.68,11111222 
DISL,ioos:station:DISL:CATA:1,2019-09-08T00:30:00Z,30.3085,-88.1395,0.0,7.37,11111222 
DISL,ioos:station:DISL:CATA:1,2019-09-08T01:30:00Z,30.3085,-88.1395,0.0,6.9,11111222 
DISL,ioos:station:DISL:CATA:1,2019-09-08T02:30:00Z,30.3085,-88.1395,0.0,6.85,11111222 
DISL,ioos:station:DISL:CATA:1,2019-09-08T03:30:00Z,30.3085,-88.1395,0.0,6.4,11111222 
DISL,ioos:station:DISL:CATA:1,2019-09-08T04:30:00Z,30.3085,-88.1395,0.0,6.47,11111222 
DISL,ioos:station:DISL:CATA:1,2019-09-08T05:30:00Z,30.3085,-88.1395,0.0,6.51,11111222 
DISL,ioos:station:DISL:CATA:1,2019-09-08T06:30:00Z,30.3085,-88.1395,0.0,6.4,11111222 
DISL,ioos:station:DISL:CATA:1,2019-09-08T07:30:00Z,30.3085,-88.1395,0.0,6.3,11111222 
DISL,ioos:station:DISL:CATA:1,2019-09-08T08:30:00Z,30.3085,-88.1395,0.0,6.34,11111222 
DISL,ioos:station:DISL:CATA:1,2019-09-08T09:30:00Z,30.3085,-88.1395,0.0,6.3,11111222 
DISL,ioos:station:DISL:CATA:1,2019-09-08T10:30:00Z,30.3085,-88.1395,0.0,5.96,11111222 
DISL,ioos:station:DISL:CATA:1,2019-09-08T11:30:00Z,30.3085,-88.1395,0.0,6.05,11111222 
DISL,ioos:station:DISL:CATA:1,2019-09-08T12:30:00Z,30.3085,-88.1395,0.0,5.69,11111222 
DISL,ioos:station:DISL:CATA:1,2019-09-08T13:30:00Z,30.3085,-88.1395,0.0,4.15,11111222 
DISL,ioos:station:DISL:CATA:1,2019-09-08T14:30:00Z,30.3085,-88.1395,0.0,4.48,11111222 
DISL,ioos:station:DISL:CATA:1,2019-09-08T15:30:00Z,30.3085,-88.1395,0.0,3.52,11111222 
DISL,ioos:station:DISL:CATA:1,2019-09-08T16:30:00Z,30.3085,-88.1395,0.0,5.8,11111222 
DISL,ioos:station:DISL:CATA:1,2019-09-08T17:30:00Z,30.3085,-88.1395,0.0,5.84,11111222 
DISL,ioos:station:DISL:CATA:1,2019-09-08T18:30:00Z,30.3085,-88.1395,0.0,5.63,11111222 
DISL,ioos:station:DISL:CATA:1,2019-09-08T19:30:00Z,30.3085,-88.1395,0.0,6.19,11111222 
DISL,ioos:station:DISL:CATA:1,2019-09-08T20:30:00Z,30.3085,-88.1395,0.0,6.9,11111222 
DISL,ioos:station:DISL:CATA:1,2019-09-08T21:30:00Z,30.3085,-88.1395,0.0,6.86,11111222 
DISL,ioos:station:DISL:CATA:1,2019-09-08T22:30:00Z,30.3085,-88.1395,0.0,6.7,11111222 
DISL,ioos:station:DISL:CATA:1,2019-09-08T23:30:00Z,30.3085,-88.1395,0.0,5.03,11111222 
DISL,ioos:station:DISL:CATA:1,2019-09-09T00:30:00Z,30.3085,-88.1395,0.0,6.42,11111222 
DISL,ioos:station:DISL:CATA:1,2019-09-09T01:30:00Z,30.3085,-88.1395,0.0,6.23,11111222 
DISL,ioos:station:DISL:CATA:1,2019-09-09T02:30:00Z,30.3085,-88.1395,0.0,5.91,11111222 
DISL,ioos:station:DISL:CATA:1,2019-09-09T03:30:00Z,30.3085,-88.1395,0.0,5.63,11111222 
DISL,ioos:station:DISL:CATA:1,2019-09-09T04:30:00Z,30.3085,-88.1395,0.0,5.7,11111222 
DISL,ioos:station:DISL:CATA:1,2019-09-09T05:30:00Z,30.3085,-88.1395,0.0,5.66,11111222 
DISL,ioos:station:DISL:CATA:1,2019-09-09T06:30:00Z,30.3085,-88.1395,0.0,5.74,11111222 
DISL,ioos:station:DISL:CATA:1,2019-09-09T07:30:00Z,30.3085,-88.1395,0.0,5.53,11111222 
DISL,ioos:station:DISL:CATA:1,2019-09-09T08:30:00Z,30.3085,-88.1395,0.0,5.6,11111222 
DISL,ioos:station:DISL:CATA:1,2019-09-09T09:30:00Z,30.3085,-88.1395,0.0,5.75,11111222 
DISL,ioos:station:DISL:CATA:1,2019-09-09T10:30:00Z,30.3085,-88.1395,0.0,5.5,11111222 
DISL,ioos:station:DISL:CATA:1,2019-09-09T11:30:00Z,30.3085,-88.1395,0.0,5.52,11111222 
DISL,ioos:station:DISL:CATA:1,2019-09-09T12:30:00Z,30.3085,-88.1395,0.0,5.41,11111222 
DISL,ioos:station:DISL:CATA:1,2019-09-09T13:00:00Z,30.3085,-88.1395,0.0,5.29,11111222 
DISL,ioos:station:DISL:CATA:1,2019-09-09T15:00:00Z,30.3085,-88.1395,0.0,4.26,11111222 
DISL,ioos:station:DISL:CATA:1,2019-09-09T15:30:00Z,30.3085,-88.1395,0.0,4.35,11111222 
DISL,ioos:station:DISL:CATA:1,2019-09-09T16:30:00Z,30.3085,-88.1395,0.0,4.2,11111222 
DISL,ioos:station:DISL:CATA:1,2019-09-09T17:30:00Z,30.3085,-88.1395,0.0,3.18,11111222 
DISL,ioos:station:DISL:CATA:1,2019-09-09T18:30:00Z,30.3085,-88.1395,0.0,4.0,11111222 
DISL,ioos:station:DISL:CATA:1,2019-09-09T22:30:00Z,30.3085,-88.1395,0.0,6.15,11111222 
DISL,ioos:station:DISL:CATA:1,2019-09-09T23:30:00Z,30.3085,-88.1395,0.0,6.06,11111222 
DISL,ioos:station:DISL:CATA:1,2019-09-10T00:30:00Z,30.3085,-88.1395,0.0,5.97,11111222 
DISL,ioos:station:DISL:CATA:1,2019-09-10T01:30:00Z,30.3085,-88.1395,0.0,5.81,11111222 
DISL,ioos:station:DISL:CATA:1,2019-09-10T02:30:00Z,30.3085,-88.1395,0.0,5.46,11111222 
DISL,ioos:station:DISL:CATA:1,2019-09-10T03:30:00Z,30.3085,-88.1395,0.0,4.7,11111222 
DISL,ioos:station:DISL:CATA:1,2019-09-10T04:30:00Z,30.3085,-88.1395,0.0,5.24,11111222 
DISL,ioos:station:DISL:CATA:1,2019-09-10T05:30:00Z,30.3085,-88.1395,0.0,5.21,11111222 
DISL,ioos:station:DISL:CATA:1,2019-09-10T06:30:00Z,30.3085,-88.1395,0.0,5.25,11111222 
DISL,ioos:station:DISL:CATA:1,2019-09-10T07:30:00Z,30.3085,-88.1395,0.0,4.86,11111222 
DISL,ioos:station:DISL:CATA:1,2019-09-10T08:30:00Z,30.3085,-88.1395,0.0,4.77,11111222 
DISL,ioos:station:DISL:CATA:1,2019-09-10T09:30:00Z,30.3085,-88.1395,0.0,5.03,11111222 
DISL,ioos:station:DISL:CATA:1,2019-09-10T10:30:00Z,30.3085,-88.1395,0.0,4.82,11111222 
DISL,ioos:station:DISL:CATA:1,2019-09-10T11:30:00Z,30.3085,-88.1395,0.0,4.19,11111222 
DISL,ioos:station:DISL:CATA:1,2019-09-10T12:30:00Z,30.3085,-88.1395,0.0,4.13,11111222 
DISL,ioos:station:DISL:CATA:1,2019-09-10T13:30:00Z,30.3085,-88.1395,0.0,4.05,11111222 
DISL,ioos:station:DISL:CATA:1,2019-09-10T14:30:00Z,30.3085,-88.1395,0.0,4.35,11111222 
DISL,ioos:station:DISL:CATA:1,2019-09-10T15:30:00Z,30.3085,-88.1395,0.0,5.18,11111222 
DISL,ioos:station:DISL:CATA:1,2019-09-10T16:30:00Z,30.3085,-88.1395,0.0,6.02,11111222 
DISL,ioos:station:DISL:CATA:1,2019-09-10T17:30:00Z,30.3085,-88.1395,0.0,6.41,11111222 
DISL,ioos:station:DISL:CATA:1,2019-09-10T18:30:00Z,30.3085,-88.1395,0.0,6.39,11111222 
DISL,ioos:station:DISL:CATA:1,2019-09-10T19:30:00Z,30.3085,-88.1395,0.0,6.26,11111222 
DISL,ioos:station:DISL:CATA:1,2019-09-10T20:30:00Z,30.3085,-88.1395,0.0,6.14,11111222 
DISL,ioos:station:DISL:CATA:1,2019-09-10T21:30:00Z,30.3085,-88.1395,0.0,6.38,11111222 
DISL,ioos:station:DISL:CATA:1,2019-09-10T22:30:00Z,30.3085,-88.1395,0.0,6.06,11111222 
DISL,ioos:station:DISL:CATA:1,2019-09-10T23:30:00Z,30.3085,-88.1395,0.0,6.02,11111222 
DISL,ioos:station:DISL:CATA:1,2019-09-11T00:30:00Z,30.3085,-88.1395,0.0,6.15,11111222 
DISL,ioos:station:DISL:CATA:1,2019-09-11T01:30:00Z,30.3085,-88.1395,0.0,5.98,11111222 
DISL,ioos:station:DISL:CATA:1,2019-09-11T02:30:00Z,30.3085,-88.1395,0.0,3.65,11111222 
DISL,ioos:station:DISL:CATA:1,2019-09-11T03:30:00Z,30.3085,-88.1395,0.0,4.84,11111222 
DISL,ioos:station:DISL:CATA:1,2019-09-11T04:30:00Z,30.3085,-88.1395,0.0,5.0,11111222 
DISL,ioos:station:DISL:CATA:1,2019-09-11T05:30:00Z,30.3085,-88.1395,0.0,5.24,11111222 
DISL,ioos:station:DISL:CATA:1,2019-09-11T06:30:00Z,30.3085,-88.1395,0.0,5.22,11111222 
DISL,ioos:station:DISL:CATA:1,2019-09-11T07:30:00Z,30.3085,-88.1395,0.0,4.77,11111222 
DISL,ioos:station:DISL:CATA:1,2019-09-11T08:30:00Z,30.3085,-88.1395,0.0,4.38,11111222 
DISL,ioos:station:DISL:CATA:1,2019-09-11T09:30:00Z,30.3085,-88.1395,0.0,3.54,11111222 
DISL,ioos:station:DISL:CATA:1,2019-09-11T10:30:00Z,30.3085,-88.1395,0.0,3.99,11111222 
DISL,ioos:station:DISL:CATA:1,2019-09-11T11:30:00Z,30.3085,-88.1395,0.0,3.33,11111222 
DISL,ioos:station:DISL:CATA:1,2019-09-11T12:30:00Z,30.3085,-88.1395,0.0,3.65,11111222 
DISL,ioos:station:DISL:CATA:1,2019-09-11T13:30:00Z,30.3085,-88.1395,0.0,4.55,11111222 
DISL,ioos:station:DISL:CATA:1,2019-09-11T14:30:00Z,30.3085,-88.1395,0.0,4.67,11111222 
DISL,ioos:station:DISL:CATA:1,2019-09-11T15:30:00Z,30.3085,-88.1395,0.0,5.1,11111222 
DISL,ioos:station:DISL:CATA:1,2019-09-11T16:30:00Z,30.3085,-88.1395,0.0,5.84,11111222 
DISL,ioos:station:DISL:CATA:1,2019-09-11T17:30:00Z,30.3085,-88.1395,0.0,5.96,11111222 
DISL,ioos:station:DISL:CATA:1,2019-09-11T18:30:00Z,30.3085,-88.1395,0.0,6.2,11111222 
DISL,ioos:station:DISL:CATA:1,2019-09-11T19:30:00Z,30.3085,-88.1395,0.0,6.26,11111222 
DISL,ioos:station:DISL:CATA:1,2019-09-11T20:30:00Z,30.3085,-88.1395,0.0,6.64,11111222 
DISL,ioos:station:DISL:CATA:1,2019-09-11T21:30:00Z,30.3085,-88.1395,0.0,6.88,11111222 
DISL,ioos:station:DISL:CATA:1,2019-09-11T22:30:00Z,30.3085,-88.1395,0.0,6.73,11111222 
DISL,ioos:station:DISL:CATA:1,2019-09-11T23:30:00Z,30.3085,-88.1395,0.0,6.33,11111222 
DISL,ioos:station:DISL:CATA:1,2019-09-12T00:30:00Z,30.3085,-88.1395,0.0,5.99,11111222 
DISL,ioos:station:DISL:CATA:1,2019-09-12T01:30:00Z,30.3085,-88.1395,0.0,5.62,11111222 
DISL,ioos:station:DISL:CATA:1,2019-09-12T02:30:00Z,30.3085,-88.1395,0.0,4.08,11111222 
DISL,ioos:station:DISL:CATA:1,2019-09-12T03:30:00Z,30.3085,-88.1395,0.0,4.57,11111222 
DISL,ioos:station:DISL:CATA:1,2019-09-12T04:30:00Z,30.3085,-88.1395,0.0,4.92,11111222 
DISL,ioos:station:DISL:CATA:1,2019-09-12T05:30:00Z,30.3085,-88.1395,0.0,5.23,11111222 
DISL,ioos:station:DISL:CATA:1,2019-09-12T06:30:00Z,30.3085,-88.1395,0.0,4.96,11111222 
DISL,ioos:station:DISL:CATA:1,2019-09-12T07:30:00Z,30.3085,-88.1395,0.0,4.22,11111222 
DISL,ioos:station:DISL:CATA:1,2019-09-12T08:30:00Z,30.3085,-88.1395,0.0,4.73,11111222 
DISL,ioos:station:DISL:CATA:1,2019-09-12T09:30:00Z,30.3085,-88.1395,0.0,5.11,11111222 
DISL,ioos:station:DISL:CATA:1,2019-09-12T10:30:00Z,30.3085,-88.1395,0.0,3.5,11111222 
DISL,ioos:station:DISL:CATA:1,2019-09-12T11:30:00Z,30.3085,-88.1395,0.0,4.42,11111222 
DISL,ioos:station:DISL:CATA:1,2019-09-12T12:30:00Z,30.3085,-88.1395,0.0,3.45,11111222 
DISL,ioos:station:DISL:CATA:1,2019-09-12T14:30:00Z,30.3085,-88.1395,0.0,4.77,11111222 
DISL,ioos:station:DISL:CATA:1,2019-09-12T15:30:00Z,30.3085,-88.1395,0.0,3.34,11111222 
DISL,ioos:station:DISL:CATA:1,2019-09-13T19:30:00Z,30.3085,-88.1395,0.0,6.5,11111222 
DISL,ioos:station:DISL:CATA:1,2019-09-13T20:30:00Z,30.3085,-88.1395,0.0,6.63,11111222 
DISL,ioos:station:DISL:CATA:1,2019-09-13T21:30:00Z,30.3085,-88.1395,0.0,6.87,11111222 